Tracking 20621 objects as of 1-Apr-2020
HD Live streaming from Space Station
objects crossing your sky now

SL-14 DEB

Track SL-14 DEB now!
10-day predictions


NORAD ID: 25187
Int'l Code: 1987-068N
Perigee: 816.4 km
Apogee: 830.6 km
Inclination: 82.6 °
Period: 101.2 minutes
Semi major axis: 7194 km
RCS: 0.0093 m2 (small)
Launch date: August 18, 1987
Source: Commonwealth of Independent States (former USSR) (CIS)
Launch site: PLESETSK MISSILE AND SPACE COMPLEX (PKMTR)

Note: This is SATELLITE DEBRIS
aabbcc
Your satellite tracking list
Your tracking list is empty




NASA's NSSDC Master Catalog

Two Line Element Set (TLE):
1 25187U 87068N   20089.82338449  .00001032  00000-0  45389-3 0  9990
2 25187  82.5506  48.3502 0009909 233.8983 126.1282 14.22665278135268
Source of the keplerian elements: AFSPC